User: anonymous   Login
Location: Notre Dame Regional High School Observatory
(37.3056°N, 89.6097°W)
Time: 16:46:54
(UTC-06:00)
Language:

ATLAS 3B R/B - Orbit

View from above orbital plane
View from above orbital plane
View from above satellite
View from above satellite

Ground track
Ground track

The orbit data is extracted from the following two-line orbital elements,

1 28538U 05004B   17034.80547290 0.00000000  00000-0  00000-0 0    08
2 28538  63.8218 272.8276 0154000 186.2963 173.7036 13.43093353    06
Epoch (UTC): 03 February 2017 19:19:52
Eccentricity: 0.0154000
inclination: 63.8218°
perigee height: 982 km
apogee height: 1213 km
right ascension of ascending node: 272.8276°
argument of perigee: 186.2963°
revolutions per day: 13.43093353
mean anomaly at epoch: 173.7036°
orbit number at epoch: 0

The dashed part of the orbit path shows where the satellite is in the earth's shadow,  

DLR